Regional Weather Roundup
Issued by NWS New Orleans/Baton Rouge, LA

Home | Current Version | Previous Version | Graphics & Text | Print | Product List | Glossary On
Versions: 1 2 3 4 5 6 7 8 9 10 11 12 13 14 15 16 17 18 19 20 21 22 23 24 25 26 27 28 29 30 31 32 33 34 35 36 37 38 39 40 41 42 43 44 45 46 47 48 49 50
404
ASUS44 KLIX 241401
RWRLIX
NEW ORLEANS REGIONAL WEATHER ROUNDUP
NATIONAL WEATHER SERVICE NEW ORLEANS LA
800 AM CST MON NOV 24 2014

NOTE: "FAIR" INDICATES FEW OR NO CLOUDS BELOW 12,000 FEET WITH NO
      SIGNIFICANT WEATHER AND/OR OBSTRUCTIONS TO VISIBILITY.
      SKY/WX - SKY CONDITION AND SIGNIFICANT WEATHER.
      TMP - AIR TEMPERATURE.     DP    - DEWPOINT TEMPERATURE.
      RH  - RELATIVE HUMIDITY.   PRES  - PRESSURE.
      HI  - HEAT INDEX.          WCI   - WIND CHILL INDEX.

*  THESE STATIONS ARE NOT NWS OR FAA STATIONS AND ARE NOT UNDER
   NWS QUALITY CONTROL.

LAZ038-040-048-061>063-065>067-069-241500-
SOUTHEAST LOUISIANA

CITY           SKY/WX    TMP DP  RH WIND       PRES   REMARKS
N.O. AUDUBON   NOT AVBL
N.O. INTL ARPT MOSUNNY   67  64  90 W7        29.85R
N.O. LAKEFRONT SUNNY     61  59  93 W12       29.85R
N.O. DOWNTOWN*   N/A     66  61  82 W5        29.86R
SLIDELL        SUNNY     67  64  90 W5        29.84R
BATON ROUGE    MOSUNNY   59  52  77 NW7       29.89R
BOOTHVILLE     CLOUDY    68  68 100 W8        29.86R FOG
BELLE CHASSE   PTSUNNY   66  63  88 W6        29.84R FOG
BOGALUSA*        N/A     66  63  90 W5        29.86R FOG
NEW ROADS*       N/A     54  48  80 NW9       29.92R
GONZALES*      NOT AVBL
HAMMOND*       SUNNY     64  61  88 NW9       29.87R
HOUMA*         MOSUNNY   66  64  94 SW5       29.86R
PORT FOURCHON* FOG       68  66  94 W8        29.89R VSB 0

$$

MSZ070-080>082-241500-
SOUTHERN MISSISSIPPI

CITY           SKY/WX    TMP DP  RH WIND       PRES   REMARKS
MCCOMB         PTSUNNY   57  51  80 NW9       29.87R
GULFPORT       SUNNY     68  65  90 W5        29.83R FOG
BILOXI         SUNNY     68  68 100 VRB1      29.84R
PASCAGOULA     MOSUNNY   68  66  93 VRB3      29.83R

$$

COASTAL OBSERVATIONS
LAKE AND NEARSHORE STATIONS

STATION/POSITION TIME  TEMP    WIND        PRES    WAVE
                       AIR SEA DIR/SP/G            HT/PER
                 (UTC) (F)     (DEG/KT/KT) (MB)    (FT/S)
PASCAGOULA       1300   63     250/  7/  9 1009.6
WAVELAND YACHT   1300   67     270/  4/  6 1009.3
GRAND ISLE       1300   67 65  290/ 12/ 13 1011.0
SOUTHWEST PASS   1300   69                 1010.8
NEW CANAL        1300   64 56  260/  6/  7 1010.8
SHELL BEACH      1300   67 54  250/  7/  8 1010.1

OFFSHORE STATIONS

STATION/POSITION TIME  TEMP    WIND        PRES    WAVE
                       AIR SEA DIR/SP/G            HT/PER
                 (UTC) (F)     (DEG/KT/KT) (MB)    (FT/S)
64 S DAUPHIN ISL 1332   73 72  260/ 12/ 12 1011.0    5/ 7

$$




USA.gov is the U.S. government's official web portal to all federal, state and local government web resources and services.